Temperature
33 33 33 34 34 33 33 33 33 34 35 34 33 33 33 32 32 30 29 29 28 27 26 25 24 23 22 21 21 20 20 20 19 19 19 19 19 19 19 19 19 19 19 19
33 33 34 35 35 34 34 33 34 34 35 34 33 33 34 33 33 31 30 29 28 27 26 25 24 23 22 22 21 21 20 20 20 20 19 19 19 19 19 19 19 19 19 18
32 34 35 34 34 33 33 33 34 34 34 35 34 33 33 33 33 32 31 30 29 28 27 25 24 24 23 22 21 21 21 20 20 20 20 19 19 19 19 19 19 19 19 19
33 34 34 34 33 33 33 34 34 34 33 33 33 31 32 33 33 33 32 31 30 29 27 26 25 24 23 22 21 21 21 21 20 20 20 19 19 19 19 19 19 19 19 19
33 33 33 33 34 34 33 34 34 34 33 33 33 32 32 33 32 32 32 32 30 29 28 26 25 24 24 23 22 21 21 21 20 20 20 20 19 19 19 19 19 19 19 19
33 34 34 34 34 34 34 34 34 34 33 31 33 32 32 33 32 33 33 32 31 30 28 27 26 25 24 23 22 21 21 21 21 20 20 20 20 19 19 19 19 19 19 19
32 33 34 34 33 34 33 32 31 31 31 31 33 33 32 33 34 33 33 32 31 30 29 27 26 25 24 23 23 22 21 21 21 20 20 20 20 20 19 19 19 19 19 19
31 32 33 34 33 33 33 32 31 30 30 31 32 32 32 34 34 33 33 32 31 30 29 28 27 25 24 24 23 22 21 21 21 20 20 20 20 20 19 19 19 19 19 19
31 32 34 34 34 33 32 32 33 32 31 31 31 32 33 34 33 33 33 32 31 30 29 28 27 25 24 24 23 22 22 21 21 21 20 20 20 20 19 19 19 19 19 19
31 30 33 34 34 33 33 33 32 31 29 29 31 31 32 32 32 33 32 31 30 30 29 28 27 26 25 24 23 22 22 21 21 21 20 20 20 20 20 19 19 19 19 19
31 30 31 32 32 32 32 31 31 31 31 30 29 30 33 32 31 32 32 31 30 29 29 28 27 26 25 24 23 23 22 21 21 20 20 20 20 20 20 20 19 19 19 19
31 30 30 31 33 33 32 32 31 30 29 30 30 30 33 33 32 32 31 30 29 28 28 27 26 26 25 24 23 23 22 21 21 20 20 20 20 19 19 19 19 19 19 19
29 29 28 29 31 32 32 32 32 31 30 30 30 30 33 32 32 31 30 28 28 27 27 26 25 24 24 24 23 23 22 21 20 20 20 19 19 19 19 19 19 19 19 19
28 28 28 28 29 30 30 31 31 31 30 30 30 30 31 31 30 30 29 27 27 26 26 25 24 23 23 23 23 22 22 21 20 20 20 19 19 19 19 19 19 19 19 19
29 28 28 29 30 30 30 31 31 30 30 30 30 30 30 30 29 28 27 26 26 25 25 24 23 22 22 22 22 21 21 21 20 20 20 19 19 19 19 18 18 18 18 18
28 27 27 27 29 29 30 30 31 31 30 30 30 30 30 29 28 27 26 25 25 24 24 23 22 22 21 21 21 21 21 21 20 20 20 19 19 19 18 18 18 18 18 18
27 26 26 26 28 28 28 29 30 30 31 30 29 29 29 28 27 26 26 25 24 23 23 22 22 21 21 20 20 20 20 20 20 20 19 19 19 19 18 18 18 18 18 17
27 26 26 26 26 25 28 30 30 30 30 30 29 28 28 27 25 25 24 24 23 23 22 21 21 21 20 20 20 20 20 19 19 19 19 19 19 18 18 18 18 18 18 17
28 26 25 25 25 26 28 29 29 28 28 28 28 27 27 26 25 24 23 22 22 21 21 20 20 20 20 19 19 19 19 19 19 19 19 19 18 18 18 18 18 17 17 17
27 26 25 25 24 24 27 29 29 28 26 26 26 26 25 25 24 23 22 21 21 20 20 20 19 19 19 19 19 19 18 18 18 18 18 18 18 17 17 17 17 17 17 16
25 25 24 24 24 26 27 28 28 25 24 25 25 24 24 23 22 21 21 20 20 19 19 19 19 19 18 18 18 18 18 18 18 18 17 17 17 17 17 17 17 17 16 16
25 24 24 24 24 24 26 26 25 24 24 24 23 23 22 22 21 20 20 19 19 19 18 18 18 18 17 17 17 17 17 17 17 17 17 17 17 17 16 16 16 16 16 16
25 25 24 24 24 24 24 24 23 23 23 22 22 22 21 21 20 20 19 19 18 18 18 17 17 17 17 16 16 16 16 16 16 16 16 16 16 16 16 16 16 15 15 15
24 25 24 23 23 23 23 22 22 22 21 21 21 21 21 20 20 19 19 18 18 17 17 17 17 16 16 16 16 16 16 16 16 16 16 15 15 15 15 15 15 15 15 15
23 23 22 22 22 22 21 21 20 20 20 20 20 20 20 20 19 19 18 18 17 17 17 16 16 16 16 15 15 16 16 15 15 15 15 15 15 14 15 14 14 15 15 14
22 22 21 21 21 21 20 20 19 19 19 19 19 19 18 19 18 18 17 17 17 16 16 16 15 15 15 15 15 15 15 15 15 15 14 14 14 14 14 14 14 14 14 14
Wind_Speed
13 13 13 10 8 9 10 10 7 3 1 2 4 5 9 10 12 13 14 14 15 15 16 15 15 14 14 13 11 9 8 7 5 5 5 4 3 3 3 4 6 6 4 4
14 15 14 10 8 9 11 12 9 4 3 5 7 8 8 10 12 13 14 15 15 16 17 16 15 15 15 14 12 11 9 9 7 5 4 4 4 3 3 3 5 6 5 5
16 12 9 10 10 12 13 12 10 8 8 9 9 8 7 10 11 12 13 14 15 16 18 17 16 15 15 15 14 12 10 10 8 7 5 4 3 2 3 4 5 5 5 5
16 15 12 11 12 12 12 11 11 11 11 9 9 8 8 9 11 12 12 14 15 15 17 18 17 16 16 15 14 12 10 10 9 8 7 6 5 5 5 4 4 5 5 5
15 14 14 14 12 11 13 11 11 12 12 13 13 10 7 9 10 11 12 13 14 15 16 17 18 17 16 16 15 13 11 10 10 8 8 6 6 5 4 5 5 5 5 5
17 14 13 12 12 12 12 13 14 13 13 14 13 12 7 5 7 9 11 12 12 14 16 15 15 15 15 16 15 15 13 11 11 10 8 7 6 6 5 6 6 6 5 4
16 16 13 11 13 12 11 12 10 11 10 11 10 10 3 5 5 7 9 10 10 12 13 14 14 14 15 15 15 15 15 13 12 11 9 8 7 6 5 5 6 5 5 5
13 13 13 11 12 11 12 14 12 12 10 10 9 8 3 5 5 6 8 10 10 11 12 13 14 13 12 14 15 15 15 13 13 12 10 8 7 7 6 6 5 5 4 4
10 10 9 11 11 13 13 13 14 14 15 14 9 7 4 5 7 7 7 8 9 9 10 11 12 13 12 12 12 13 14 13 13 13 10 8 8 7 6 6 6 4 4 4
11 12 12 9 9 12 13 13 10 11 10 12 11 8 4 5 5 5 5 5 5 6 6 9 11 12 12 13 12 12 12 14 13 11 11 10 9 8 6 6 6 4 4 3
12 13 12 9 11 13 12 13 12 10 11 11 11 6 1 2 3 4 5 5 4 5 6 6 7 10 12 12 12 12 12 12 12 11 10 8 9 9 8 6 5 5 4 4
8 10 12 13 13 12 13 13 13 11 10 11 12 7 3 1 2 4 5 4 3 3 3 3 5 6 8 10 11 11 10 11 11 11 9 9 8 9 9 8 6 5 5 5
4 7 10 11 10 10 11 12 13 13 12 13 14 8 3 2 3 4 5 5 4 3 3 3 4 3 4 6 7 9 10 11 11 11 10 10 9 9 8 7 7 6 6 5
4 9 12 14 11 10 12 15 15 14 14 13 14 9 4 1 2 3 6 6 4 3 2 3 4 3 2 3 3 6 8 8 10 10 11 10 10 9 8 8 8 7 7 6
6 11 14 15 16 15 15 16 15 15 14 15 13 9 6 2 2 4 6 5 4 2 2 2 3 3 2 2 2 4 6 7 8 9 10 10 9 8 7 7 7 7 7 8
8 10 13 15 16 15 18 17 15 15 14 15 15 11 6 1 3 4 4 3 2 1 1 1 2 2 2 3 3 3 4 5 6 8 8 8 9 8 8 8 8 7 7 6
10 10 12 14 15 15 17 15 13 12 11 11 12 7 3 3 4 3 2 2 1 2 2 2 2 2 2 2 2 2 2 4 5 5 6 7 7 8 7 8 7 7 6 5
11 9 9 13 14 17 12 10 10 10 11 9 6 3 3 3 3 3 3 2 1 1 1 0 2 3 3 3 2 2 2 3 4 5 5 5 6 6 6 6 6 5 5 5
10 8 10 11 15 16 14 8 8 8 10 5 4 3 4 3 1 1 4 5 3 3 3 2 1 1 2 2 1 1 3 4 4 4 4 4 5 5 5 6 6 5 4 4
11 8 10 12 14 15 10 6 5 7 7 4 4 4 5 5 4 3 4 3 3 3 2 1 1 0 1 1 1 1 2 2 3 3 3 2 3 3 4 4 4 4 4 4
12 11 13 15 16 13 8 8 6 8 3 4 5 4 4 4 4 3 4 3 3 3 2 2 1 1 1 1 1 1 1 2 2 2 3 3 3 3 4 3 3 4 4 4
11 11 12 13 15 10 7 6 5 3 4 4 4 5 5 4 3 2 2 2 2 1 2 1 2 3 2 1 2 2 1 1 2 2 3 3 3 3 4 4 4 4 5 4
9 8 7 7 6 4 7 6 5 5 5 5 5 5 4 4 3 2 2 1 1 1 1 0 2 3 2 1 1 2 1 1 2 2 2 2 2 2 2 4 4 4 4 4
7 5 6 6 4 4 5 6 7 6 5 6 6 6 5 4 4 3 2 1 1 0 0 1 2 3 2 2 1 2 1 1 2 2 2 2 2 2 2 2 3 3 3 3
8 6 7 8 6 5 5 6 7 7 7 7 8 8 6 4 4 3 2 1 0 1 1 2 2 2 2 2 2 2 2 2 2 2 2 2 3 3 2 2 1 2 2 3
8 7 7 7 6 6 6 6 7 7 7 8 8 7 6 5 5 3 1 1 0 1 1 2 2 2 2 2 2 2 2 2 3 3 3 3 3 3 3 3 3 5 3 5
Wind_Direction
237 245 253 252 251 259 273 281 284 265 198 253 248 219 180 177 173 173 177 177 174 175 172 170 167 165 160 157 157 161 163 158 161 163 169 171 169 169 157 149 144 152 165 172
246 243 257 273 276 278 279 284 285 275 255 258 253 242 203 190 191 185 180 175 178 176 172 173 172 171 168 164 164 165 167 167 173 174 179 174 174 171 167 155 147 164 176 176
245 255 261 263 269 274 275 279 290 297 291 275 268 260 224 203 206 192 184 181 180 180 176 175 177 177 173 171 171 174 173 171 178 174 175 178 164 174 165 159 161 171 178 178
249 257 266 265 260 266 272 280 288 287 283 282 273 267 237 215 202 189 184 186 183 182 177 176 179 181 180 177 173 169 170 172 177 176 180 179 171 177 183 170 165 171 184 185
247 247 252 256 261 268 276 291 289 282 277 275 268 266 243 210 203 192 190 188 182 180 179 178 182 183 182 179 175 171 169 175 177 180 185 185 186 187 177 167 163 169 179 184
257 253 250 256 264 263 275 281 273 267 267 263 262 263 244 207 198 193 191 185 177 178 176 174 178 177 181 179 175 173 172 178 179 182 186 187 193 191 187 180 171 179 178 183
249 249 244 248 259 253 255 265 268 259 249 261 270 265 248 177 192 178 173 176 178 169 166 168 173 178 181 178 177 176 175 180 182 184 189 189 191 195 196 191 186 190 182 183
248 243 231 234 248 258 248 254 259 271 277 281 269 260 222 170 153 152 164 167 168 169 168 171 175 173 178 181 179 176 176 179 182 186 192 192 189 197 203 205 200 194 195 183
265 255 239 236 243 251 257 256 267 274 276 278 270 268 240 172 165 165 160 157 163 169 170 172 170 170 176 184 183 181 175 178 183 187 188 189 192 201 204 196 204 203 199 190
267 279 266 240 238 241 251 266 271 270 277 277 274 264 246 152 148 151 138 133 143 148 161 165 169 173 175 184 187 186 178 181 183 185 191 193 193 197 201 202 199 199 193 190
255 265 265 253 241 246 241 248 258 268 270 275 278 281 255 132 174 176 144 133 147 164 166 157 161 173 175 180 187 183 179 178 180 185 188 189 187 190 195 198 197 192 201 194
256 266 268 261 256 247 251 254 255 260 266 271 275 273 267 202 160 144 126 105 107 111 113 129 148 162 171 177 183 180 178 180 180 182 182 187 186 186 191 191 194 190 194 203
273 266 264 261 246 233 242 252 255 261 266 266 268 260 253 77 63 92 101 100 90 88 105 118 124 152 172 178 179 181 183 184 183 182 184 186 190 189 191 192 190 191 192 201
257 257 260 263 270 271 257 256 259 259 262 267 270 272 265 328 32 80 91 88 89 83 96 116 128 135 148 157 168 175 182 183 184 185 186 188 190 191 194 194 192 191 194 200
249 257 264 273 279 281 274 266 260 260 266 273 277 279 285 332 43 72 94 96 92 77 79 90 120 126 143 146 182 194 179 182 182 183 185 185 186 186 192 195 193 196 199 205
243 267 275 270 271 275 275 274 267 259 257 263 271 276 295 356 71 75 95 110 120 141 196 162 135 137 160 166 196 194 185 187 181 183 186 183 184 188 194 196 195 195 200 205
248 259 271 271 275 272 261 266 270 270 270 271 274 287 342 21 30 35 74 108 151 198 218 207 194 173 193 189 196 195 199 189 185 182 184 182 187 194 199 203 198 198 199 203
251 252 257 267 272 265 270 283 279 278 283 291 300 322 359 21 36 43 31 32 43 12 7 322 200 182 192 195 181 174 201 203 178 176 181 176 184 193 195 197 197 197 192 200
247 246 254 259 262 264 267 273 280 283 284 310 322 337 341 347 324 66 43 48 32 7 2 4 320 213 190 183 172 172 210 189 180 179 175 178 185 189 191 194 192 184 181 191
236 232 245 252 259 264 274 291 301 287 270 348 351 344 333 339 308 333 27 33 357 353 339 331 307 355 119 147 183 189 199 169 170 170 157 152 164 183 191 188 185 180 187 195
231 228 238 252 257 260 289 310 293 262 279 340 340 339 336 344 343 352 349 357 357 346 331 342 352 60 66 88 128 148 160 174 159 143 145 154 168 189 188 186 184 182 194 195
242 241 242 251 256 258 334 320 323 347 359 351 344 342 347 355 9 6 347 347 360 354 357 356 58 75 84 86 136 140 121 126 129 143 151 157 180 207 190 180 191 195 196 193
247 254 260 262 271 341 359 358 9 3 353 345 339 332 335 322 322 326 341 341 2 16 32 244 133 110 107 102 142 145 149 154 142 142 152 162 181 190 183 187 193 192 190 193
270 292 288 287 276 308 334 350 355 354 342 326 314 306 300 300 306 312 306 299 305 328 307 137 130 131 120 121 114 131 134 144 147 156 158 167 180 183 169 182 194 185 180 183
292 282 274 278 289 309 313 328 331 336 334 327 319 310 306 302 303 301 300 286 214 126 110 119 125 133 145 148 133 143 141 155 156 159 169 186 190 176 140 155 168 169 151 171
278 281 272 279 309 306 304 315 318 317 315 311 310 314 319 311 303 291 271 308 66 128 119 129 148 162 165 163 150 146 151 164 168 188 200 200 190 170 171 166 134 68 90 114
Height
1477 1478 1476 1470 1468 1470 1470 1472 1473 1467 1461 1466 1472 1472 1471 1474 1478 1482 1487 1492 1495 1500 1505 1509 1513 1516 1518 1520 1523 1525 1528 1530 1532 1534 1535 1537 1538 1540 1541 1542 1543 1544 1545 1547
1476 1476 1468 1464 1464 1467 1469 1472 1470 1464 1460 1464 1468 1468 1465 1469 1473 1477 1482 1486 1491 1496 1501 1506 1510 1513 1516 1518 1520 1523 1525 1528 1530 1532 1534 1536 1538 1539 1541 1542 1542 1544 1545 1546
1476 1469 1463 1465 1468 1471 1470 1471 1469 1469 1463 1461 1466 1472 1467 1465 1468 1472 1477 1482 1486 1491 1496 1501 1506 1510 1513 1515 1518 1520 1523 1526 1528 1531 1533 1536 1537 1539 1541 1541 1542 1543 1544 1545
1470 1464 1465 1467 1469 1469 1474 1463 1464 1466 1471 1473 1469 1487 1472 1465 1465 1468 1473 1478 1482 1487 1492 1497 1502 1506 1509 1512 1515 1518 1520 1523 1526 1529 1531 1533 1535 1537 1539 1540 1541 1542 1543 1544
1468 1464 1466 1469 1466 1465 1467 1461 1462 1465 1469 1474 1468 1477 1472 1461 1465 1465 1468 1472 1477 1482 1487 1492 1497 1501 1506 1510 1512 1515 1518 1520 1523 1526 1529 1531 1533 1536 1538 1539 1540 1541 1542 1543
1462 1460 1460 1462 1461 1462 1462 1463 1463 1463 1468 1484 1471 1474 1475 1461 1461 1461 1464 1469 1474 1479 1484 1489 1494 1498 1502 1506 1510 1512 1514 1517 1520 1523 1525 1528 1531 1533 1535 1537 1538 1539 1541 1541
1466 1460 1457 1459 1463 1461 1464 1476 1486 1489 1488 1485 1463 1468 1467 1453 1451 1454 1459 1466 1470 1476 1481 1486 1490 1494 1499 1502 1506 1508 1511 1513 1516 1519 1522 1525 1528 1530 1533 1535 1536 1538 1539 1540
1473 1470 1456 1457 1462 1466 1465 1470 1489 1500 1495 1482 1467 1469 1459 1448 1450 1453 1458 1463 1469 1473 1478 1482 1487 1491 1495 1499 1502 1505 1507 1510 1513 1516 1519 1522 1525 1527 1530 1532 1534 1536 1537 1538
1470 1467 1452 1453 1455 1460 1466 1466 1461 1472 1477 1482 1473 1462 1452 1448 1450 1453 1457 1462 1466 1471 1475 1479 1483 1487 1492 1496 1499 1502 1504 1507 1510 1513 1516 1519 1522 1524 1527 1529 1532 1533 1535 1536
1465 1471 1456 1450 1454 1455 1459 1461 1467 1476 1492 1495 1480 1470 1464 1455 1454 1453 1456 1461 1465 1469 1473 1477 1481 1485 1488 1493 1496 1500 1503 1505 1507 1510 1513 1516 1518 1521 1524 1526 1528 1530 1532 1534
1462 1470 1464 1457 1459 1461 1461 1465 1466 1469 1473 1488 1491 1478 1448 1450 1453 1454 1457 1461 1465 1469 1471 1475 1479 1483 1487 1490 1494 1498 1500 1502 1505 1507 1510 1514 1516 1518 1521 1523 1525 1527 1529 1531
1462 1466 1470 1461 1450 1449 1454 1459 1464 1477 1478 1474 1480 1475 1446 1447 1449 1452 1456 1462 1466 1469 1471 1474 1477 1481 1485 1488 1491 1494 1497 1499 1502 1505 1507 1510 1513 1515 1518 1520 1522 1524 1526 1527
1467 1472 1481 1473 1462 1454 1456 1455 1456 1460 1466 1471 1477 1471 1446 1449 1451 1454 1459 1463 1467 1470 1472 1475 1477 1480 1483 1486 1488 1491 1494 1496 1499 1502 1504 1507 1510 1512 1514 1516 1518 1520 1522 1524
1469 1472 1478 1483 1471 1460 1461 1457 1455 1460 1468 1469 1466 1461 1452 1451 1454 1457 1461 1465 1468 1471 1473 1474 1477 1480 1482 1484 1486 1488 1491 1494 1496 1498 1501 1503 1505 1508 1511 1513 1515 1517 1519 1520
1467 1473 1470 1465 1459 1456 1457 1455 1454 1457 1459 1464 1460 1457 1454 1454 1456 1459 1462 1466 1469 1471 1473 1475 1476 1478 1480 1481 1483 1485 1487 1490 1492 1494 1497 1499 1502 1505 1507 1509 1511 1513 1515 1517
1466 1471 1470 1470 1461 1458 1457 1452 1450 1451 1452 1455 1455 1455 1450 1453 1456 1460 1463 1465 1468 1471 1474 1475 1476 1478 1479 1480 1482 1483 1484 1487 1488 1490 1493 1496 1499 1501 1503 1505 1507 1509 1511 1513
1467 1472 1477 1474 1464 1461 1465 1453 1450 1449 1447 1450 1455 1454 1452 1455 1459 1462 1463 1465 1468 1470 1473 1475 1476 1476 1478 1479 1480 1481 1482 1484 1485 1487 1489 1491 1495 1497 1499 1502 1503 1505 1507 1509
1467 1471 1474 1474 1474 1482 1459 1443 1444 1447 1448 1447 1449 1452 1454 1458 1461 1463 1464 1466 1468 1470 1471 1472 1473 1474 1476 1477 1478 1479 1480 1481 1483 1484 1486 1489 1491 1493 1495 1497 1499 1500 1502 1504
1461 1467 1473 1475 1476 1468 1453 1447 1447 1451 1454 1451 1452 1454 1456 1458 1459 1463 1465 1466 1468 1469 1470 1470 1471 1473 1474 1475 1476 1476 1477 1478 1480 1482 1483 1485 1487 1490 1491 1493 1494 1496 1498 1499
1459 1463 1472 1473 1479 1478 1459 1448 1447 1451 1459 1456 1456 1457 1459 1460 1462 1465 1466 1467 1468 1469 1469 1469 1469 1470 1471 1472 1474 1474 1475 1476 1478 1479 1481 1482 1484 1486 1488 1489 1490 1492 1494 1495
1462 1465 1470 1472 1472 1463 1454 1449 1450 1464 1465 1459 1459 1460 1461 1463 1466 1467 1467 1467 1468 1468 1468 1468 1468 1468 1469 1470 1471 1472 1473 1474 1475 1477 1478 1480 1481 1482 1484 1486 1487 1488 1490 1491
1461 1464 1467 1468 1471 1468 1455 1453 1458 1462 1460 1460 1461 1462 1463 1464 1465 1465 1466 1466 1466 1466 1466 1466 1466 1466 1467 1468 1469 1470 1471 1472 1473 1474 1476 1477 1478 1479 1481 1482 1484 1485 1487 1488
1455 1457 1458 1461 1464 1461 1460 1460 1461 1461 1462 1462 1462 1462 1463 1463 1464 1464 1465 1465 1465 1464 1464 1464 1464 1464 1465 1467 1468 1468 1469 1471 1472 1472 1473 1474 1475 1476 1477 1479 1481 1482 1484 1485
1454 1454 1458 1460 1459 1461 1462 1463 1463 1464 1464 1464 1463 1463 1462 1462 1462 1462 1463 1463 1463 1463 1463 1462 1462 1463 1464 1465 1467 1467 1468 1469 1470 1471 1472 1472 1473 1474 1475 1477 1478 1479 1481 1482
1459 1459 1459 1461 1461 1462 1463 1464 1465 1464 1464 1464 1463 1462 1461 1461 1461 1461 1461 1461 1461 1461 1461 1461 1461 1462 1463 1464 1465 1465 1466 1466 1468 1469 1470 1471 1472 1472 1473 1474 1475 1476 1478 1479
1460 1460 1462 1462 1462 1464 1465 1465 1465 1464 1464 1463 1463 1461 1461 1460 1459 1459 1459 1459 1459 1460 1460 1460 1461 1461 1462 1463 1463 1464 1464 1465 1466 1467 1468 1470 1471 1471 1472 1473 1474 1475 1476 1478